Time,TemperatureF,DewpointF,PressureIn,WindDirection,WindDirectionDegrees,WindSpeedMPH,WindSpeedGustMPH,Humidity,HourlyPrecipIn,Conditions,Clouds,dailyrainin,SoftwareType,DateUTC
2013-02-18 00:00:00,7.2,-4.1,29.98,WSW,246,3.0,3.0,59,0.00,,,0.00,Wunderground v.1.13,2013-02-18 05:00:00,
2013-02-18 00:30:00,6.9,-3.7,29.99,WSW,244,2.0,4.0,61,0.00,,,0.00,Wunderground v.1.13,2013-02-18 05:30:00,
2013-02-18 01:00:00,6.1,-3.5,30.00,WSW,250,2.0,2.0,64,0.00,,,0.00,Wunderground v.1.13,2013-02-18 06:00:00,
2013-02-18 01:30:00,5.4,-4.2,30.01,WSW,246,3.0,3.0,64,0.00,,,0.00,Wunderground v.1.13,2013-02-18 06:30:00,
2013-02-18 02:00:00,5.0,-4.2,30.03,WSW,246,3.0,4.0,65,0.00,,,0.00,Wunderground v.1.13,2013-02-18 07:00:00,
2013-02-18 02:30:00,4.7,-4.5,30.04,WSW,240,4.0,5.0,65,0.00,,,0.00,Wunderground v.1.13,2013-02-18 07:30:00,
2013-02-18 03:00:00,4.5,-4.4,30.05,West,275,2.0,5.0,66,0.00,,,0.00,Wunderground v.1.13,2013-02-18 08:00:00,
2013-02-18 03:30:00,4.3,-4.9,30.06,WSW,246,2.0,2.0,65,0.00,,,0.00,Wunderground v.1.13,2013-02-18 08:30:00,
2013-02-18 04:00:00,4.1,-5.1,30.07,West,260,3.0,9.0,65,0.00,,,0.00,Wunderground v.1.13,2013-02-18 09:00:00,
2013-02-18 04:30:00,3.9,-5.3,30.09,WSW,247,2.0,2.0,65,0.00,,,0.00,Wunderground v.1.13,2013-02-18 09:30:00,
2013-02-18 05:00:00,3.7,-5.5,30.10,SW,231,3.0,6.0,65,0.00,,,0.00,Wunderground v.1.13,2013-02-18 10:00:00,
2013-02-18 05:30:00,3.5,-5.3,30.12,WSW,257,2.0,2.0,66,0.00,,,0.00,Wunderground v.1.13,2013-02-18 10:30:00,
2013-02-18 06:00:00,3.2,-5.6,30.13,WSW,253,1.0,4.0,66,0.00,,,0.00,Wunderground v.1.13,2013-02-18 11:00:00,
2013-02-18 06:30:00,3.0,-5.8,30.14,WSW,246,2.0,2.0,66,0.00,,,0.00,Wunderground v.1.13,2013-02-18 11:30:00,
2013-02-18 07:00:00,2.8,-6.3,30.15,SW,229,3.0,4.0,65,0.00,,,0.00,Wunderground v.1.13,2013-02-18 12:00:00,
2013-02-18 07:30:00,3.0,-6.1,30.16,WSW,243,2.0,2.0,65,0.00,,,0.00,Wunderground v.1.13,2013-02-18 12:30:00,
2013-02-18 08:00:00,3.7,-5.8,30.17,WSW,238,2.0,2.0,64,0.00,,,0.00,Wunderground v.1.13,2013-02-18 13:00:00,
2013-02-18 08:30:00,5.0,-5.5,30.18,West,260,3.0,3.0,61,0.00,,,0.00,Wunderground v.1.13,2013-02-18 13:30:00,
2013-02-18 09:00:00,6.5,-5.5,30.18,WNW,286,3.0,4.0,57,0.00,,,0.00,Wunderground v.1.13,2013-02-18 14:00:00,
2013-02-18 09:30:00,7.9,-5.3,30.18,WSW,246,3.0,3.0,54,0.00,,,0.00,Wunderground v.1.13,2013-02-18 14:30:00,
2013-02-18 10:00:00,8.1,-5.5,30.19,WNW,292,5.0,5.0,53,0.00,,,0.00,Wunderground v.1.13,2013-02-18 15:00:00,
2013-02-18 10:30:00,9.2,-6.1,30.19,SW,223,5.0,5.0,49,0.00,,,0.00,Wunderground v.1.13,2013-02-18 15:30:00,
2013-02-18 11:00:00,11.4,-4.5,30.19,West,267,3.0,4.0,48,0.00,,,0.00,Wunderground v.1.13,2013-02-18 16:00:00,
2013-02-18 11:30:00,12.9,-5.4,30.18,West,267,4.0,5.0,43,0.00,,,0.00,Wunderground v.1.13,2013-02-18 16:30:00,
2013-02-18 12:00:00,14.8,-3.7,30.18,West,265,3.0,10.0,43,0.00,,,0.00,Wunderground v.1.13,2013-02-18 17:00:00,
2013-02-18 12:30:00,16.4,-5.4,30.16,West,264,4.0,6.0,37,0.00,,,0.00,Wunderground v.1.13,2013-02-18 17:30:00,
2013-02-18 14:30:00,19.5,-1.5,30.14,WSW,238,5.0,5.0,39,0.00,,,0.00,Wunderground v.1.13,2013-02-18 19:30:00,
2013-02-18 15:00:00,19.5,-0.9,30.15,SSW,194,5.0,5.0,40,0.00,,,0.00,Wunderground v.1.13,2013-02-18 20:00:00,
2013-02-18 15:30:00,19.5,-0.9,30.13,SW,236,5.0,5.0,40,0.00,,,0.00,Wunderground v.1.13,2013-02-18 20:30:00,
2013-02-18 16:00:00,19.7,-0.2,30.13,SW,228,5.0,14.0,41,0.00,,,0.00,Wunderground v.1.13,2013-02-18 21:00:00,
2013-02-18 16:30:00,19.7,-0.2,30.13,SW,226,3.0,14.0,41,0.00,,,0.00,Wunderground v.1.13,2013-02-18 21:30:00,
2013-02-18 17:00:00,18.9,0.5,30.13,WSW,245,4.0,4.0,44,0.00,,,0.00,Wunderground v.1.13,2013-02-18 22:00:00,
2013-02-18 17:30:00,18.3,0.0,30.13,WSW,239,2.0,14.0,44,0.00,,,0.00,Wunderground v.1.13,2013-02-18 22:30:00,
2013-02-18 18:00:00,16.4,0.1,30.13,WSW,239,0.0,14.0,48,0.00,,,0.00,Wunderground v.1.13,2013-02-18 23:00:00,
2013-02-18 18:30:00,15.9,0.1,30.14,WSW,239,0.0,14.0,49,0.00,,,0.00,Wunderground v.1.13,2013-02-18 23:30:00,
2013-02-18 19:00:00,14.9,0.0,30.13,WSW,239,0.0,14.0,51,0.00,,,0.00,Wunderground v.1.13,2013-02-19 00:00:00,
2013-02-18 19:30:00,10.9,-0.6,30.13,WSW,239,0.0,14.0,59,0.00,,,0.00,Wunderground v.1.13,2013-02-19 00:30:00,
2013-02-18 20:00:00,9.9,0.1,30.12,WSW,239,0.0,14.0,64,0.00,,,0.00,Wunderground v.1.13,2013-02-19 01:00:00,
2013-02-18 21:00:00,7.9,-0.8,30.10,WSW,239,0.0,14.0,67,0.00,,,0.00,Wunderground v.1.13,2013-02-19 02:00:00,
2013-02-18 22:00:00,8.1,-0.6,30.08,WSW,239,0.0,14.0,67,0.00,,,0.00,Wunderground v.1.13,2013-02-19 03:00:00,
2013-02-18 22:30:00,7.6,-0.8,30.06,WSW,239,0.0,14.0,68,0.00,,,0.00,Wunderground v.1.13,2013-02-19 03:30:00,
2013-02-18 23:00:00,7.6,-0.5,30.05,WSW,239,0.0,14.0,69,0.00,,,0.00,Wunderground v.1.13,2013-02-19 04:00:00,
2013-02-18 23:30:00,8.4,0.9,30.04,WSW,239,0.0,14.0,71,0.00,,,0.00,Wunderground v.1.13,2013-02-19 04:30:00,